星链-5956 (STARLINK-5956 )

导读

STARLINK-5956是美国太空探索技术公司Starlink卫星互联网项目的卫星,于2023年3月24日发射升空,属于星链计划批量组网卫星之一。该卫星旨在为全球提供高速低延迟互联网服务,尤其覆盖偏远、基础设施不足区域,进一步推进Starlink星座的全球覆盖组网进程。

Basic Information
目录编号:
55994
目录名称:
STARLINK-5956
国际标识:
2023-042J
轨道中心:
EARTH
卫星名称:
星链-5956
卫星全名:
星链-5956 (STARLINK-5956 )
卫星状态:
在轨 (已飞行1179 天)
发射日期:
2023-03-24 UTC
国别 :
美国 (US)
星等 :
--
Orbit Information
数据来源 国际轨道数据 AOE轨道数据
星历时间 2026-06-14T19:50:20+0800
12小时前
查看轨道信息
2026-06-13T06:00:00+0800
2天前
查看轨道信息
半长轴 6861.203km 6861.167km
偏心率 0.0001355 0.0001595
轨道倾角 43.002° 43.002°
近地点辐角 277.963° 274.136°
升交点赤经 232.972° 241.877°
平近点角 82.107° 45.542°
近地点 482.136km 481.935km
远地点 483.996km 484.125km
周期 94.267分钟 94.266分钟
每日圈数 15.275744 15.275864
Detailed Information
固有亮度:
5
最大亮度:
2.5
卫星平台:
Starlink v1.5
覆盖范围:
全球
运营商:
太空探索技术公司
运营商所在国:
美国
制造商(研发单位):
太空探索技术公司
制造商所在国:
美国
使用方式:
暂无
Satellite Introduction
星链(Starlink)计划是由太空探索技术公司(SpaceX)提出的一个巨型低轨卫星互联网星座项目,计划在2019年至2024年间在太空搭建由约1.2万颗卫星组成的“星链”网络,其中1584颗将部署在地球上空550千米处的近地轨道,并从2020年开始工作。该卫星仍在工作。
2D Orbit Map
3D Orbit Map
Orbit Altitude Analysis Chart
Orbit Inclination Analysis Chart
Orbit Comprehensive Analysis Chart
View Comprehensive Chart